Tracking 28790 objects as of 19-Apr-2024
HD Live streaming from Space Station
objects crossing your sky now

NOAA 16 DEB

Track NOAA 16 DEB now!
10-day predictions


NORAD ID: 41540
Int'l Code: 2000-055NQ
Perigee: 836.5 km
Apogee: 886.0 km
Inclination: 98.7 °
Period: 102.0 minutes
Semi major axis: 7232 km
RCS: Unknown
Launch date: September 21, 2000
Source: United States (US)
Launch site: AIR FORCE WESTERN TEST RANGE (AFWTR)

Note: This is SATELLITE DEBRIS
Your satellite tracking list
Your tracking list is empty




NASA's NSSDC Master Catalog

Two Line Element Set (TLE):
1 41540U 00055NQ  24108.97086063  .00006642  00000-0  36615-2 0  9999
2 41540  98.7387 152.8526 0034234 273.7587  85.9670 14.11528634411615
Source of the keplerian elements: AFSPC